Retour au catalogue

STTW-4

ActifMilitaireGEO
NORAD 20473·PAYLOAD·🇨🇳 China

Lancé Feb 4, 1990 depuis Xichang Satellite Launch Center

Loading…

TLE

FraisSource: Space-Track

Époque: Sep 10, 2026, 22:43 UTC

1 20473U 90011A   26253.94687833 -.00000301  00000-0  00000+0 0  9997
2 20473  14.1140 345.7583 0003205 181.0681 259.8499  1.00250646133905

Suivez STTW-4 en temps réel avec AllMySat

Download on the App Store